• In Lithuania
  • List of Countries
  • For 7 days
  • Water Temperature
  • Satellite Maps
  • Weather Map
  • Weather Widgets
  • user-avatar
    Login

    Hourly Weather Fatehabad

    Today, 21 January, Sunday

    Time Temperature Precipitation Wind Pressure Humidity
    00:00 +13°C° 0 mm 1 mps 740 mmHg 20%
    01:00 +13°C° 0 mm 1 mps 740 mmHg 20%
    02:00 +12°C° 0 mm 1 mps 740 mmHg 20%
    03:00 +12°C° 0 mm 1 mps 740 mmHg 20%
    04:00 +11°C° 0 mm 1 mps 740 mmHg 20%
    05:00 +10°C° 0 mm 1 mps 740 mmHg 21%
    06:00 +11°C° 0 mm 1 mps 740 mmHg 22%
    07:00 +12°C° 0 mm 1 mps 741 mmHg 23%
    08:00 +12°C° 0 mm 1 mps 741 mmHg 23%
    09:00 +15°C° 0 mm 1 mps 741 mmHg 20%
    10:00 +18°C° 0 mm 2 mps 742 mmHg 17%
    11:00 +24°C° 0 mm 2 mps 742 mmHg 14%
    12:00 +25°C° 0 mm 2 mps 742 mmHg 13%
    13:00 +26°C° 0 mm 2 mps 742 mmHg 12%
    14:00 +27°C° 0 mm 2 mps 741 mmHg 11%
    15:00 +25°C° 0 mm 1 mps 741 mmHg 14%
    16:00 +23°C° 0 mm 1 mps 740 mmHg 17%
    17:00 +22°C° 0 mm 1 mps 740 mmHg 20%
    18:00 +20°C° 0 mm 1 mps 740 mmHg 20%
    19:00 +16°C° 0 mm 0 mps 740 mmHg 21%
    20:00 +15°C° 0 mm 0 mps 741 mmHg 21%
    21:00 +15°C° 0 mm 1 mps 741 mmHg 23%
    22:00 +15°C° 0 mm 1 mps 741 mmHg 24%
    23:00 +14°C° 0 mm 1 mps 740 mmHg 25%

    Tomorrow, 22 January, Monday

    Time Temperature Precipitation Wind Pressure Humidity
    00:00 +13°C° 0 mm 1 mps 740 mmHg 27%
    01:00 +13°C° 0 mm 1 mps 740 mmHg 28%
    02:00 +12°C° 0 mm 1 mps 740 mmHg 29%
    03:00 +12°C° 0 mm 1 mps 740 mmHg 31%
    04:00 +11°C° 0 mm 1 mps 739 mmHg 32%
    05:00 +11°C° 0 mm 1 mps 739 mmHg 34%
    06:00 +12°C° 0 mm 1 mps 740 mmHg 34%
    07:00 +12°C° 0 mm 1 mps 740 mmHg 34%
    08:00 +13°C° 0 mm 1 mps 741 mmHg 35%
    09:00 +16°C° 0 mm 1 mps 741 mmHg 30%
    10:00 +19°C° 0 mm 2 mps 741 mmHg 25%
    11:00 +23°C° 0 mm 2 mps 741 mmHg 20%
    12:00 +24°C° 0 mm 2 mps 741 mmHg 18%
    13:00 +25°C° 0 mm 2 mps 740 mmHg 17%
    14:00 +26°C° 0 mm 2 mps 739 mmHg 15%
    15:00 +25°C° 0 mm 2 mps 739 mmHg 18%
    16:00 +24°C° 0 mm 2 mps 738 mmHg 22%
    17:00 +23°C° 0 mm 2 mps 738 mmHg 25%
    18:00 +20°C° 0 mm 3 mps 738 mmHg 28%
    19:00 +18°C° 0 mm 3 mps 738 mmHg 31%
    20:00 +17°C° 0 mm 4 mps 738 mmHg 35%
    21:00 +15°C° 0 mm 4 mps 739 mmHg 37%
    22:00 +14°C° 0 mm 4 mps 739 mmHg 39%
    23:00 +14°C° 0 mm 4 mps 739 mmHg 41%

    Day after tomorrow, 23 January, Tuesday

    Time Temperature Precipitation Wind Pressure Humidity
    00:00 +13°C° 0 mm 4 mps 738 mmHg 42%
    01:00 +13°C° 0 mm 3 mps 738 mmHg 42%
    02:00 +13°C° 0 mm 3 mps 738 mmHg 43%
    03:00 +12°C° 0 mm 3 mps 738 mmHg 44%
    04:00 +12°C° 0 mm 3 mps 738 mmHg 45%
    05:00 +12°C° 0 mm 3 mps 737 mmHg 46%
    06:00 +13°C° 0 mm 3 mps 738 mmHg 45%
    07:00 +13°C° 0 mm 4 mps 738 mmHg 44%
    08:00 +14°C° 0 mm 4 mps 739 mmHg 42%
    09:00 +15°C° 0.3 mm 4 mps 739 mmHg 45%
    10:00 +15°C° 0.3 mm 4 mps 739 mmHg 48%
    11:00 +17°C° 0.3 mm 3 mps 740 mmHg 51%
    12:00 +18°C° 0.3 mm 3 mps 739 mmHg 49%
    13:00 +19°C° 0.3 mm 3 mps 738 mmHg 48%
    14:00 +20°C° 0.3 mm 3 mps 738 mmHg 46%
    15:00 +19°C° 0.2 mm 3 mps 738 mmHg 53%
    16:00 +18°C° 0.2 mm 4 mps 737 mmHg 59%
    17:00 +17°C° 0.2 mm 4 mps 737 mmHg 66%
    18:00 +14°C° 0.1 mm 4 mps 738 mmHg 72%
    19:00 +13°C° 0.1 mm 4 mps 738 mmHg 79%
    20:00 +12°C° 0.1 mm 4 mps 739 mmHg 86%
    21:00 +11°C° 0 mm 3 mps 739 mmHg 85%
    22:00 +12°C° 0 mm 2 mps 739 mmHg 85%
    23:00 +10°C° 0 mm 2 mps 739 mmHg 85%

    24 January, Wednesday

    Time Temperature Precipitation Wind Pressure Humidity
    00:00 +10°C° 0 mm 2 mps 739 mmHg 84%
    01:00 +10°C° 0 mm 2 mps 739 mmHg 83%
    02:00 +11°C° 0 mm 1 mps 739 mmHg 82%
    03:00 +10°C° 0 mm 1 mps 739 mmHg 83%
    04:00 +10°C° 0 mm 1 mps 739 mmHg 84%
    05:00 +10°C° 0 mm 1 mps 740 mmHg 85%
    06:00 +10°C° 0 mm 1 mps 740 mmHg 83%
    07:00 +10°C° 0 mm 2 mps 741 mmHg 81%
    08:00 +10°C° 0 mm 2 mps 741 mmHg 79%
    09:00 +13°C° 0 mm 2 mps 742 mmHg 70%
    10:00 +16°C° 0 mm 2 mps 742 mmHg 60%
    11:00 +18°C° 0 mm 2 mps 742 mmHg 50%
    12:00 +20°C° 0 mm 2 mps 742 mmHg 45%
    13:00 +21°C° 0 mm 2 mps 741 mmHg 40%
    14:00 +22°C° 0 mm 3 mps 740 mmHg 35%
    15:00 +21°C° 0 mm 2 mps 740 mmHg 38%
    16:00 +21°C° 0 mm 2 mps 740 mmHg 40%
    17:00 +20°C° 0 mm 2 mps 740 mmHg 43%
    18:00 +19°C° 0 mm 1 mps 740 mmHg 46%
    19:00 +18°C° 0 mm 1 mps 741 mmHg 49%
    20:00 +15°C° 0 mm 1 mps 741 mmHg 53%
    21:00 +15°C° 0 mm 1 mps 741 mmHg 54%
    22:00 +13°C° 0 mm 0 mps 741 mmHg 56%
    23:00 +12°C° 0 mm 0 mps 741 mmHg 57%

    25 January, Thursday

    Time Temperature Precipitation Wind Pressure Humidity
    00:00 +12°C° 0 mm 0 mps 741 mmHg 58%
    01:00 +13°C° 0 mm 1 mps 740 mmHg 59%
    02:00 +12°C° 0 mm 1 mps 740 mmHg 60%
    03:00 +12°C° 0 mm 1 mps 740 mmHg 61%
    04:00 +12°C° 0 mm 1 mps 740 mmHg 61%
    05:00 +11°C° 0 mm 1 mps 739 mmHg 62%
    06:00 +12°C° 0 mm 1 mps 740 mmHg 60%
    07:00 +13°C° 0 mm 1 mps 740 mmHg 58%
    08:00 +13°C° 0 mm 1 mps 741 mmHg 56%
    09:00 +16°C° 0 mm 1 mps 741 mmHg 48%
    10:00 +19°C° 0 mm 2 mps 741 mmHg 40%
    11:00 +23°C° 0 mm 2 mps 742 mmHg 33%
    12:00 +24°C° 0 mm 3 mps 741 mmHg 29%
    13:00 +25°C° 0 mm 3 mps 740 mmHg 25%
    14:00 +26°C° 0 mm 3 mps 740 mmHg 22%
    15:00 +24°C° 0 mm 3 mps 739 mmHg 24%
    16:00 +23°C° 0 mm 2 mps 739 mmHg 26%
    17:00 +21°C° 0 mm 2 mps 739 mmHg 29%
    18:00 +20°C° 0 mm 1 mps 739 mmHg 31%
    19:00 +18°C° 0 mm 1 mps 739 mmHg 32%
    20:00 +16°C° 0 mm 1 mps 739 mmHg 34%
    21:00 +15°C° 0 mm 1 mps 739 mmHg 35%
    22:00 +15°C° 0 mm 1 mps 739 mmHg 36%
    23:00 +13°C° 0 mm 0 mps 739 mmHg 37%

    26 January, Friday

    Time Temperature Precipitation Wind Pressure Humidity
    00:00 +14°C° 0 mm 1 mps 739 mmHg 38%
    01:00 +13°C° 0 mm 1 mps 739 mmHg 39%
    02:00 +13°C° 0 mm 1 mps 739 mmHg 40%
    03:00 +13°C° 0 mm 1 mps 739 mmHg 42%
    04:00 +12°C° 0 mm 1 mps 739 mmHg 43%
    05:00 +12°C° 0 mm 1 mps 738 mmHg 44%
    06:00 +12°C° 0 mm 1 mps 739 mmHg 44%
    07:00 +13°C° 0 mm 1 mps 739 mmHg 44%
    08:00 +14°C° 0 mm 1 mps 740 mmHg 43%
    09:00 +16°C° 0 mm 1 mps 740 mmHg 37%
    10:00 +20°C° 0 mm 1 mps 741 mmHg 30%
    11:00 +23°C° 0 mm 2 mps 741 mmHg 24%
    12:00 +24°C° 0 mm 2 mps 740 mmHg 22%
    13:00 +25°C° 0 mm 2 mps 740 mmHg 19%
    14:00 +26°C° 0 mm 2 mps 739 mmHg 17%
    15:00 +25°C° 0 mm 2 mps 739 mmHg 20%
    16:00 +23°C° 0 mm 2 mps 738 mmHg 23%
    17:00 +22°C° 0 mm 1 mps 738 mmHg 25%
    18:00 +19°C° 0 mm 2 mps 738 mmHg 28%
    19:00 +18°C° 0 mm 2 mps 738 mmHg 31%
    20:00 +16°C° 0 mm 2 mps 738 mmHg 33%
    21:00 +15°C° 0 mm 2 mps 739 mmHg 36%
    22:00 +15°C° 0 mm 2 mps 739 mmHg 38%
    23:00 +14°C° 0 mm 2 mps 739 mmHg 41%
    Show more